Temperature
22 23 24 24 24 24 23 21 20 21 21 21 20 21 21 21 21 21 21 22 22 21 21 21 21 21 21 20 20 20 20 19 19 19 19 18 18 18 18 18 18 17 17 17
22 23 24 23 24 24 23 22 22 21 20 20 20 21 21 21 21 21 21 21 21 21 21 21 21 20 20 20 20 20 19 19 19 19 19 18 18 18 18 18 17 17 17 17
20 22 23 22 22 22 22 21 21 20 20 19 19 20 20 21 21 20 20 20 21 21 21 20 20 20 20 20 20 19 19 19 19 19 18 18 18 18 18 18 17 17 17 17
18 20 21 20 21 22 21 21 20 20 19 19 20 20 21 21 20 20 20 20 20 20 20 20 20 20 20 19 19 19 19 19 19 18 18 18 18 18 18 17 17 17 17 17
17 18 20 21 21 21 20 20 20 19 19 19 20 20 19 20 20 20 20 20 20 20 20 19 19 19 19 19 19 19 18 18 18 18 18 18 18 17 17 17 17 17 17 16
17 19 19 19 21 21 20 19 19 19 18 18 19 17 17 19 19 19 19 19 19 19 19 19 18 18 18 18 18 18 18 18 18 17 17 17 17 17 17 17 16 16 16 16
17 17 18 19 20 21 19 18 19 19 19 19 18 18 19 19 19 19 18 18 19 18 18 18 18 18 18 17 17 17 17 17 17 17 17 17 17 16 16 16 16 16 16 16
16 17 18 19 19 18 17 19 19 19 19 19 19 19 18 18 18 18 18 18 18 18 17 17 17 17 17 17 17 17 17 16 16 16 16 16 16 16 16 16 15 15 15 15
15 16 17 18 18 18 19 19 19 19 19 19 19 18 18 18 17 17 17 17 17 17 17 17 17 17 17 16 16 16 16 16 16 15 15 15 15 15 15 15 15 15 15 14
15 16 17 17 18 19 19 19 19 19 18 18 18 17 17 17 17 17 17 17 17 17 17 16 16 16 16 16 16 16 15 15 15 15 15 15 15 15 14 14 14 14 14 14
15 16 16 17 18 18 18 18 18 18 18 18 18 17 17 17 16 16 16 16 16 16 16 16 16 16 16 15 15 15 15 15 15 15 14 14 14 14 14 14 14 14 13 13
15 16 15 16 18 18 18 18 18 18 17 17 17 17 16 16 16 16 16 16 15 15 15 15 15 15 15 15 15 15 14 14 14 14 14 14 14 14 13 13 13 13 13 13
17 18 17 17 17 17 17 17 17 17 17 16 16 16 16 16 15 15 15 15 15 15 15 15 15 15 15 14 14 14 14 14 14 14 14 14 13 13 13 13 13 13 13 12
18 17 17 17 17 17 17 17 17 16 16 16 16 15 15 15 15 15 15 14 14 14 14 14 14 14 14 14 14 14 14 14 13 13 13 13 13 13 13 13 13 12 12 12
17 17 17 17 17 17 16 17 16 16 16 15 15 15 15 15 14 14 14 14 14 14 14 14 14 13 13 13 13 13 13 13 13 13 13 13 13 12 12 12 12 12 12 11
17 17 17 16 16 16 16 16 16 15 15 15 15 14 14 14 14 14 13 13 13 13 13 13 13 13 13 13 13 13 13 13 13 13 13 12 12 12 12 12 12 12 11 11
16 16 16 16 16 15 15 15 15 15 15 15 14 14 14 14 13 13 13 13 13 13 13 13 13 12 12 12 12 12 12 12 12 12 12 12 12 12 12 12 11 11 11 11
16 16 16 16 15 15 15 15 15 15 14 14 14 14 14 13 13 13 13 12 12 12 12 12 12 12 12 12 12 12 12 12 12 12 12 12 12 12 12 11 11 11 11 11
16 16 16 15 15 15 15 15 14 14 14 14 13 13 13 13 13 12 12 12 12 12 12 12 12 12 12 12 12 12 12 11 11 11 11 11 11 11 11 11 11 11 10 10
15 15 15 15 15 15 14 14 14 14 13 13 13 13 13 13 12 12 12 12 12 12 12 11 11 11 11 11 11 11 11 11 11 11 11 11 11 11 11 11 10 10 10 10
15 15 15 15 14 14 14 14 14 13 13 13 13 13 12 12 12 12 12 11 11 11 11 11 11 11 11 11 11 11 11 11 11 11 11 11 11 10 10 10 10 10 10 9
14 14 14 14 14 14 14 13 13 13 13 13 12 12 12 12 12 11 11 11 11 11 11 11 11 11 11 11 10 10 10 11 10 10 10 10 10 10 10 10 9 9 9 9
14 14 14 14 14 13 13 13 13 13 13 12 12 12 12 12 12 12 11 11 11 11 11 11 11 10 10 10 10 10 10 10 10 10 10 10 10 9 9 9 9 9 8 8
14 14 13 13 13 13 13 13 13 12 12 12 12 12 12 12 12 12 12 11 11 11 11 11 10 10 10 10 10 10 10 10 10 10 9 9 9 9 9 9 8 8 8 8
13 13 13 13 13 13 13 12 12 12 12 12 12 12 12 12 12 12 11 11 11 11 11 10 10 10 10 10 10 10 9 9 9 9 9 9 9 9 8 8 8 8 7 7
13 13 13 13 13 12 12 12 12 12 12 12 12 12 11 11 11 11 11 11 11 11 10 10 10 10 10 10 10 9 9 9 9 9 9 9 9 8 8 8 7 7 7 6
12 12 12 12 12 12 12 12 12 12 12 12 12 11 11 11 11 11 11 11 10 10 10 10 10 10 10 9 9 9 9 9 9 9 8 8 8 8 7 7 7 6 6 6
Wind_Speed
3 4 2 3 2 1 1 5 6 5 4 4 3 4 3 4 5 6 6 5 4 4 5 6 6 6 7 7 7 7 7 7 7 6 6 6 6 6 6 6 6 5 5 4
3 2 3 4 4 2 1 3 5 5 2 2 1 1 2 4 5 6 6 6 5 4 5 6 6 6 6 6 7 7 8 8 7 6 6 6 7 6 6 6 6 5 5 5
2 3 3 3 3 1 2 2 5 4 4 2 3 3 3 4 6 6 6 6 5 5 5 5 6 6 6 6 6 7 7 7 6 6 6 5 6 5 6 6 6 5 5 5
1 3 2 5 1 4 5 3 2 4 3 4 5 4 3 4 5 5 5 5 5 4 4 3 3 4 4 4 5 6 5 5 6 6 5 5 4 5 5 5 5 5 5 5
3 2 3 4 3 0 3 1 1 4 3 3 3 4 5 3 3 3 4 4 4 4 4 4 4 4 4 4 4 4 5 5 5 6 6 5 5 5 5 4 4 5 4 5
3 3 4 5 5 3 4 1 1 4 4 3 4 2 2 1 2 4 4 4 4 4 5 5 3 5 5 3 3 3 4 4 4 5 5 6 6 5 4 4 4 4 4 4
3 3 4 5 5 2 3 5 2 3 5 4 3 4 3 3 3 4 4 4 4 4 4 3 3 4 5 4 3 3 3 3 3 3 4 4 4 3 3 4 3 3 3 3
3 3 5 4 2 3 5 2 1 2 3 3 3 3 4 5 5 5 4 4 4 4 3 2 2 4 3 2 2 1 2 2 2 2 3 3 2 2 2 3 3 2 2 1
4 4 4 2 2 3 3 2 1 2 2 3 4 4 4 4 4 4 4 3 4 5 4 2 2 3 3 1 1 2 2 1 1 1 1 1 2 2 2 2 2 1 1 1
2 1 0 2 3 3 2 3 2 2 2 2 4 5 5 5 4 4 4 4 4 5 4 2 1 2 2 2 2 3 2 1 1 2 1 1 1 2 2 2 2 1 1 2
1 1 2 2 1 1 2 4 4 4 3 3 5 5 5 5 5 4 4 3 3 3 3 2 1 1 1 2 3 3 2 1 1 2 2 1 1 1 1 2 3 4 3 3
4 5 4 3 2 1 2 2 3 4 3 3 4 5 5 5 4 5 4 3 3 3 2 2 2 2 1 1 3 3 2 1 1 1 1 2 2 2 3 1 2 4 3 3
5 4 4 2 1 1 1 2 3 4 4 3 3 5 6 5 4 5 4 3 3 3 2 2 2 2 1 1 2 3 2 1 1 1 2 2 2 2 1 2 3 2 1 0
4 5 3 1 0 1 2 2 4 4 5 5 5 5 5 5 5 5 4 3 3 4 3 3 3 1 0 2 3 3 2 2 2 1 1 1 1 2 2 2 1 1 2 2
2 3 4 2 2 2 3 4 6 5 5 5 5 5 6 6 5 4 3 4 5 5 4 3 3 1 1 2 3 2 1 1 1 1 1 1 1 1 1 2 1 1 0 1
2 3 4 3 2 2 3 4 4 4 5 5 5 5 5 6 5 4 4 5 5 4 2 3 2 1 1 2 2 2 1 2 3 2 1 1 1 1 1 1 1 1 1 1
4 2 2 2 1 2 2 3 4 5 5 6 6 5 5 6 5 4 3 3 3 3 2 3 2 1 2 2 2 2 1 2 4 3 2 2 2 2 2 2 2 1 1 1
4 5 4 4 4 3 3 4 5 6 6 6 6 5 6 5 4 3 3 3 4 3 3 2 2 2 3 3 2 2 2 2 2 2 2 2 1 1 2 2 2 2 1 1
2 3 3 4 4 4 4 4 5 5 6 6 6 5 5 5 4 3 3 4 4 2 1 1 3 3 2 3 3 2 2 2 2 2 2 2 2 2 1 2 1 1 1 1
1 2 4 4 5 5 5 5 5 5 5 6 6 6 5 4 4 4 4 3 1 1 1 1 2 2 2 2 3 2 2 2 2 2 2 3 2 2 2 2 1 2 2 1
2 3 4 4 4 4 5 5 6 6 5 6 7 6 5 4 4 4 4 2 1 1 2 2 2 1 1 1 3 2 2 2 2 2 2 2 2 2 2 2 2 2 2 2
3 3 4 4 4 4 4 5 6 6 6 5 5 5 6 5 4 3 3 2 2 2 2 1 1 2 2 2 2 2 2 2 2 2 2 2 2 2 2 2 2 2 2 2
3 4 4 4 4 5 5 5 6 6 6 6 6 6 5 4 4 4 2 2 2 3 2 1 2 3 3 2 2 2 2 2 2 2 2 2 2 2 2 2 2 2 2 2
3 4 3 3 5 6 6 4 5 5 5 5 5 5 5 4 2 2 3 3 3 3 2 2 3 3 3 2 2 2 2 2 2 2 3 3 2 2 2 2 2 2 3 3
4 4 4 5 4 4 4 5 5 5 5 3 3 3 3 4 4 2 2 3 4 4 2 2 2 2 2 1 2 2 1 2 2 3 3 3 2 2 2 2 2 3 2 2
3 3 4 4 3 3 4 4 4 4 4 3 2 2 2 2 3 3 2 2 3 3 2 1 1 2 2 2 2 2 2 3 3 3 3 3 3 3 3 3 3 3 2 2
3 3 3 4 3 3 4 4 4 4 4 5 4 3 3 3 4 4 4 3 3 2 2 2 2 2 2 2 2 3 2 2 3 3 3 3 2 2 2 3 2 2 2 2
Wind_Direction
223 241 284 309 310 354 135 164 168 194 186 220 214 194 167 137 133 130 132 127 143 157 168 167 166 168 169 171 170 170 169 178 191 195 194 193 198 204 201 200 207 204 200 206
352 340 359 342 345 359 57 126 137 142 195 225 171 117 111 131 139 135 139 134 138 147 152 158 166 166 165 166 167 165 172 184 188 186 193 200 200 199 199 206 210 204 204 209
282 320 15 320 320 51 91 119 136 165 210 151 102 105 136 149 141 137 136 127 138 159 160 164 168 162 162 166 165 167 178 183 182 183 193 202 200 193 199 207 208 210 212 209
137 39 232 245 297 92 96 71 110 143 156 150 153 146 121 124 133 136 136 132 134 139 140 145 141 145 149 150 153 166 178 187 189 186 191 195 196 203 209 204 205 211 210 211
123 165 261 297 325 203 124 346 90 134 131 119 117 67 34 41 107 133 131 130 137 132 125 114 114 120 117 122 148 165 184 192 192 186 186 190 200 208 208 200 204 208 208 208
130 155 222 250 281 277 102 277 308 114 121 114 82 83 269 335 81 85 91 98 110 113 101 102 110 117 117 127 141 174 202 201 196 188 187 196 206 212 208 198 207 207 213 214
155 191 245 270 288 2 126 227 257 127 138 143 169 198 195 142 97 96 94 93 91 100 104 112 125 129 136 146 179 199 194 182 176 177 189 198 204 208 201 196 194 203 211 227
143 172 243 301 43 143 197 216 169 155 157 145 143 127 120 117 111 109 102 97 91 92 90 81 94 116 132 168 205 150 128 145 162 174 192 194 176 184 174 167 168 183 188 232
170 203 250 1 126 174 159 133 139 140 152 135 124 126 121 121 122 118 114 106 100 99 92 76 77 106 129 183 124 103 90 125 146 146 159 165 172 174 154 146 156 177 176 226
91 228 192 58 77 72 106 128 137 135 148 137 141 147 144 140 134 124 112 105 103 95 96 99 107 104 138 146 114 105 111 159 150 129 126 125 154 158 152 160 166 178 193 247
108 206 38 22 57 97 81 87 92 92 105 131 134 137 145 144 138 127 112 102 103 105 116 126 107 93 107 123 114 107 104 114 118 124 135 113 85 85 152 178 179 180 204 220
215 222 185 218 239 99 94 92 103 99 77 74 107 122 125 131 128 122 117 108 95 93 114 121 109 97 81 112 125 120 105 87 110 133 130 123 104 66 50 120 143 162 181 191
189 179 163 184 241 341 70 96 99 112 117 103 94 115 120 121 116 114 111 107 111 120 122 120 106 93 92 116 119 118 121 118 102 117 131 138 134 132 109 22 44 70 93 189
135 119 92 78 143 15 63 105 95 92 95 105 102 101 102 99 101 103 107 110 108 105 104 104 96 76 82 135 115 101 100 94 101 136 154 159 164 164 158 151 136 343 340 326
94 128 150 149 79 56 68 92 96 97 104 100 99 102 111 115 114 109 104 99 89 85 87 87 82 46 22 91 98 96 92 72 96 134 148 157 156 147 140 131 137 155 4 327
105 91 95 87 83 86 92 103 121 131 128 121 109 107 115 122 121 114 108 108 103 97 99 96 79 26 42 75 82 75 67 64 76 97 110 115 126 136 134 133 132 143 192 246
128 111 101 90 96 99 122 142 142 134 127 126 128 127 115 111 108 104 100 103 111 111 100 95 83 47 54 65 82 77 61 52 57 68 92 104 110 130 146 144 144 147 175 189
168 171 170 162 148 137 120 124 128 128 130 134 134 125 122 123 127 128 123 106 90 75 59 67 79 69 58 63 71 76 70 57 58 70 81 80 91 118 128 137 146 151 150 82
145 152 158 144 140 139 129 130 136 138 139 137 134 132 129 127 131 131 122 111 102 88 344 10 70 73 60 57 67 64 64 59 54 52 70 65 57 55 86 111 119 132 134 114
118 135 143 136 130 136 137 139 135 132 134 135 130 123 120 128 134 127 115 109 140 188 193 86 80 74 68 49 61 68 60 54 60 60 64 73 76 68 68 77 95 103 100 100
106 120 129 125 130 136 141 145 145 144 144 140 140 142 144 142 134 129 121 107 291 126 108 90 89 87 83 62 60 68 58 54 63 76 82 87 86 74 61 63 73 80 83 78
108 106 113 119 120 125 130 137 139 138 135 136 140 137 133 130 124 118 131 166 188 136 112 98 98 96 94 83 70 67 56 57 67 82 92 91 94 94 85 80 74 71 73 76
119 111 106 115 124 123 115 120 125 131 133 134 138 141 143 148 147 143 164 217 166 135 122 130 118 103 93 83 73 66 57 59 69 82 87 90 94 95 87 75 65 66 74 69
113 106 105 112 115 112 114 122 122 123 124 128 141 148 144 137 137 172 170 171 156 140 133 134 120 106 98 81 63 55 57 61 66 73 77 81 78 75 73 72 68 62 66 66
112 112 113 113 119 130 135 126 114 110 108 110 118 133 140 146 153 165 147 151 154 146 150 150 138 114 92 92 81 64 59 62 81 90 85 87 85 83 79 74 72 74 73 70
104 111 118 124 135 139 133 128 130 134 126 114 103 109 113 117 126 129 132 138 139 141 142 136 127 110 85 75 72 73 75 72 73 79 85 85 83 83 80 73 67 79 83 76
95 92 91 92 94 106 116 121 124 125 128 128 120 113 112 112 113 114 112 105 100 103 100 96 96 94 88 82 81 82 84 83 81 85 88 86 87 92 88 83 87 94 91 94
Height
1483 1478 1477 1478 1479 1478 1483 1489 1499 1498 1495 1492 1488 1486 1485 1485 1486 1487 1488 1490 1492 1494 1496 1499 1500 1501 1503 1505 1507 1509 1510 1512 1513 1515 1516 1517 1518 1519 1520 1521 1522 1523 1524 1524
1483 1476 1476 1479 1477 1476 1478 1481 1487 1489 1492 1486 1485 1486 1487 1487 1487 1488 1488 1488 1490 1493 1495 1497 1498 1499 1500 1502 1504 1506 1508 1509 1510 1511 1513 1514 1514 1515 1517 1518 1519 1520 1520 1521
1494 1482 1480 1490 1481 1479 1480 1480 1483 1491 1490 1486 1486 1486 1486 1487 1487 1487 1487 1487 1488 1490 1492 1494 1496 1497 1498 1499 1502 1503 1505 1505 1506 1508 1509 1510 1511 1512 1513 1514 1515 1516 1517 1517
1497 1492 1502 1490 1476 1475 1479 1481 1480 1481 1482 1483 1484 1484 1485 1485 1486 1486 1486 1486 1488 1489 1490 1492 1494 1496 1497 1498 1499 1501 1502 1502 1503 1504 1505 1507 1508 1509 1510 1511 1512 1512 1513 1513
1501 1503 1496 1484 1478 1477 1481 1485 1480 1480 1481 1482 1483 1483 1484 1484 1485 1486 1486 1486 1488 1489 1490 1491 1493 1494 1495 1496 1497 1498 1499 1499 1500 1501 1502 1503 1504 1505 1506 1507 1508 1509 1509 1510
1497 1501 1503 1489 1476 1473 1477 1488 1479 1478 1478 1481 1482 1487 1486 1484 1484 1485 1486 1487 1488 1489 1490 1491 1492 1493 1493 1494 1495 1496 1496 1496 1497 1498 1499 1500 1501 1502 1503 1504 1504 1505 1505 1506
1495 1500 1492 1479 1473 1473 1489 1489 1478 1477 1478 1479 1481 1482 1482 1483 1484 1485 1486 1486 1487 1488 1488 1489 1490 1491 1491 1492 1493 1493 1494 1494 1494 1495 1496 1497 1497 1498 1499 1500 1500 1501 1502 1502
1495 1499 1495 1475 1474 1478 1481 1476 1476 1477 1477 1478 1479 1480 1480 1482 1482 1483 1485 1486 1487 1487 1488 1489 1489 1490 1490 1490 1490 1491 1492 1492 1492 1493 1494 1494 1494 1495 1495 1496 1497 1497 1498 1498
1488 1490 1479 1474 1474 1474 1474 1475 1475 1476 1477 1477 1478 1480 1480 1481 1482 1483 1484 1485 1486 1486 1487 1488 1488 1489 1488 1488 1489 1489 1490 1490 1490 1490 1491 1492 1492 1492 1492 1492 1493 1493 1494 1494
1483 1480 1477 1476 1475 1474 1474 1473 1474 1475 1476 1477 1478 1479 1480 1481 1482 1483 1484 1484 1485 1485 1485 1486 1487 1487 1487 1487 1487 1487 1488 1488 1488 1489 1489 1490 1490 1489 1489 1489 1489 1490 1490 1491
1482 1480 1478 1477 1476 1475 1474 1474 1474 1475 1476 1476 1477 1478 1479 1480 1481 1482 1483 1484 1484 1484 1484 1485 1485 1486 1486 1486 1486 1485 1485 1486 1487 1487 1487 1487 1487 1487 1487 1487 1487 1488 1488 1487
1482 1477 1478 1477 1476 1475 1474 1473 1474 1475 1476 1477 1477 1477 1478 1479 1481 1482 1483 1484 1484 1484 1484 1484 1484 1485 1485 1485 1484 1484 1484 1484 1485 1485 1485 1485 1485 1485 1485 1486 1485 1485 1485 1485
1474 1474 1475 1475 1476 1475 1474 1474 1474 1474 1475 1476 1478 1478 1479 1479 1481 1482 1483 1483 1483 1483 1484 1484 1484 1484 1484 1484 1484 1484 1483 1483 1483 1483 1484 1484 1484 1483 1483 1483 1483 1483 1482 1481
1473 1474 1475 1475 1476 1475 1475 1475 1475 1475 1476 1477 1478 1479 1480 1480 1481 1482 1482 1482 1483 1483 1483 1483 1483 1483 1483 1483 1483 1482 1482 1482 1482 1482 1482 1483 1483 1482 1482 1481 1480 1480 1479 1479
1473 1473 1474 1475 1475 1476 1476 1476 1475 1475 1476 1477 1478 1479 1479 1480 1481 1482 1483 1482 1482 1482 1483 1483 1483 1483 1483 1483 1482 1482 1481 1481 1481 1481 1482 1482 1482 1481 1481 1480 1479 1479 1478 1477
1473 1473 1473 1474 1474 1476 1476 1476 1475 1475 1476 1477 1478 1479 1479 1480 1482 1482 1482 1482 1482 1482 1482 1482 1482 1483 1483 1483 1482 1482 1481 1481 1481 1481 1481 1480 1480 1480 1479 1479 1478 1478 1477 1477
1472 1473 1473 1473 1474 1475 1475 1475 1475 1476 1476 1477 1478 1480 1480 1480 1481 1482 1482 1482 1482 1482 1482 1482 1482 1482 1483 1483 1482 1482 1481 1481 1481 1481 1480 1480 1479 1479 1479 1478 1477 1477 1477 1476
1471 1472 1472 1472 1473 1474 1474 1475 1475 1476 1476 1477 1478 1479 1480 1480 1480 1481 1482 1482 1482 1482 1482 1482 1482 1483 1483 1483 1482 1482 1481 1481 1480 1480 1480 1479 1479 1479 1478 1477 1477 1476 1476 1476
1469 1470 1471 1471 1471 1472 1473 1473 1474 1475 1476 1477 1478 1479 1479 1480 1481 1481 1482 1482 1482 1482 1482 1483 1483 1483 1483 1483 1482 1482 1481 1481 1480 1480 1479 1479 1478 1478 1478 1477 1477 1476 1475 1475
1467 1469 1469 1470 1470 1471 1472 1473 1473 1474 1475 1476 1477 1478 1479 1480 1481 1481 1482 1482 1482 1482 1483 1483 1483 1483 1483 1482 1482 1482 1481 1480 1480 1479 1479 1479 1478 1478 1477 1477 1476 1476 1475 1474
1466 1467 1468 1468 1469 1470 1471 1471 1472 1473 1474 1475 1476 1478 1479 1480 1481 1481 1481 1482 1483 1483 1483 1483 1483 1483 1483 1482 1482 1481 1481 1480 1480 1479 1479 1478 1478 1478 1477 1477 1476 1475 1474 1473
1466 1466 1467 1467 1468 1469 1470 1470 1471 1472 1473 1475 1477 1478 1478 1479 1480 1481 1482 1482 1483 1483 1483 1483 1483 1483 1483 1482 1482 1481 1481 1480 1480 1480 1479 1478 1478 1477 1477 1476 1475 1474 1473 1472
1465 1466 1467 1468 1468 1469 1469 1470 1471 1472 1473 1475 1476 1477 1478 1479 1480 1481 1482 1483 1483 1484 1484 1483 1484 1483 1483 1482 1482 1481 1481 1480 1480 1480 1479 1479 1478 1477 1476 1475 1474 1473 1472 1471
1466 1466 1467 1468 1469 1469 1470 1471 1472 1473 1474 1476 1477 1478 1479 1480 1481 1482 1482 1483 1484 1484 1484 1484 1484 1483 1483 1482 1482 1481 1481 1481 1480 1480 1479 1478 1477 1477 1476 1474 1473 1472 1471 1470
1465 1466 1467 1468 1468 1470 1471 1472 1473 1474 1476 1477 1478 1479 1480 1481 1481 1482 1483 1483 1484 1484 1484 1484 1484 1484 1483 1482 1482 1481 1481 1481 1480 1479 1479 1478 1477 1476 1475 1473 1472 1471 1470 1468
1465 1466 1467 1468 1469 1470 1471 1472 1473 1475 1476 1477 1479 1480 1480 1481 1482 1482 1483 1483 1483 1484 1484 1484 1484 1484 1483 1482 1482 1481 1481 1480 1480 1479 1478 1477 1476 1475 1474 1472 1471 1470 1468 1467
1466 1467 1468 1469 1470 1471 1472 1473 1474 1475 1476 1478 1479 1480 1481 1482 1482 1483 1483 1483 1484 1484 1484 1484 1484 1484 1483 1483 1482 1482 1481 1480 1480 1479 1477 1476 1475 1474 1472 1471 1469 1468 1466 1465